Palm Springs, CA

5:57 AM PDT on July 23, 2017 (GMT -0700)
Palm Springs International

Weather History for KPSP - November, 2011

Change the Weather History Date:

Sunday, November 20, 2011

  Actual Average Record
Temperature  
Mean Temperature 56 °F 62 °F  
Max Temperature 67 °F 75 °F 89 °F (1933)
Min Temperature 45 °F 50 °F 31 °F (1985)
Degree Days  
Heating Degree Days 9 4  
Month to date heating degree days 85 38  
Since 1 July heating degree days 85 42  
Cooling Degree Days 0 1  
Month to date cooling degree days 14 68  
Year to date cooling degree days 4147 4130  
Growing Degree Days 6 (Base 50)    
Moisture  
Dew Point 41 °F    
Average Humidity 54    
Maximum Humidity 76    
Minimum Humidity 32    
Precipitation  
Precipitation 0.00 in 0.02 in 0.34 in (1963)
Month to date precipitation 0.39 0.29  
Year to date precipitation 2.78 4.62  
Since 1 July precipitation 1.31  
Snow  
Snow 0.00 in - - ()
Month to date snowfall 0.0  
Year to date snowfall 0.0  
Snow Depth 0.00 in    
Sea Level Pressure  
Sea Level Pressure 29.91 in    
Wind  
Wind Speed 4 mph (SSE)    
Max Wind Speed 10 mph    
Max Gust Speed 15 mph    
Visibility 10 miles    
Events Rain    
T = Trace of Precipitation, MM = Missing Value Source: NWS Daily Summary

Daily Weather History Graph

Daily Weather History Graph

Search for Another Location

Airport or City:

Trip Planner

Search our weather history database for the weather conditions in past years. The results will help you decide how hot, cold, wet, or windy it might be!

Date:

Astronomy

Nov. 20, 2011 Rise Set
Actual Time 6:22 AM PST 4:40 PM PST
Civil Twilight 5:55 AM PST 5:07 PM PST
Nautical Twilight 5:25 AM PST 5:37 PM PST
Astronomical Twilight 4:55 AM PST 6:07 PM PST
Moon 1:09 AM PST (11/20) 1:20 PM PST (11/20)
Length of Visible Light 11h 11m
Length of Day
10h 17m
Waning Crescent, 26% of the Moon is Illuminated
Nov 20
Waning Crescent
Nov 24
New
Dec 2
First Quarter
Dec 10
Full
Dec 17
Last Quarter

Hourly Weather History & Observations

Time (PST) Temp. Dew Point Humidity Pressure Visibility Wind Dir Wind Speed Gust Speed Precip Events Conditions
12:53 AM 54.0 °F 39.0 °F 57% 29.86 in 10.0 mi SE 4.6 mph - N/A   Clear
1:53 AM 52.0 °F 39.9 °F 63% 29.86 in 10.0 mi Calm Calm - N/A   Clear
2:53 AM 51.1 °F 39.0 °F 63% 29.86 in 10.0 mi NNW 4.6 mph - N/A   Clear
3:53 AM 48.9 °F 39.0 °F 69% 29.86 in 10.0 mi Calm Calm - N/A   Clear
4:53 AM 48.9 °F 39.0 °F 69% 29.87 in 10.0 mi Calm Calm - N/A   Clear
5:53 AM 46.9 °F 39.0 °F 74% 29.90 in 10.0 mi SW 3.5 mph - N/A   Clear
6:53 AM 48.0 °F 39.0 °F 71% 29.92 in 10.0 mi South 5.8 mph - N/A   Scattered Clouds
7:53 AM 55.4 °F 37.4 °F 51% 29.94 in 10.0 mi Calm Calm - N/A   Scattered Clouds
8:53 AM 59.0 °F 39.0 °F 48% 29.95 in 10.0 mi SSE 4.6 mph - N/A   Mostly Cloudy
9:53 AM 64.0 °F 36.0 °F 35% 29.96 in 10.0 mi Variable 6.9 mph - N/A   Mostly Cloudy
10:53 AM 63.0 °F 35.1 °F 35% 29.95 in 10.0 mi South 5.8 mph - N/A   Mostly Cloudy
11:53 AM 64.9 °F 35.1 °F 33% 29.92 in 10.0 mi Variable 4.6 mph - N/A   Mostly Cloudy
12:53 PM 64.9 °F 35.1 °F 33% 29.91 in 10.0 mi East 4.6 mph - N/A   Scattered Clouds
1:53 PM 66.0 °F 36.0 °F 33% 29.90 in 10.0 mi East 8.1 mph - N/A   Mostly Cloudy
2:53 PM 64.4 °F 37.4 °F 37% 29.89 in 10.0 mi ESE 8.1 mph - N/A   Mostly Cloudy
3:53 PM 63.0 °F 37.9 °F 40% 29.88 in 10.0 mi SE 9.2 mph - N/A   Scattered Clouds
4:53 PM 62.1 °F 39.0 °F 43% 29.89 in 10.0 mi East 5.8 mph - N/A   Mostly Cloudy
5:53 PM 60.8 °F 39.2 °F 45% 29.90 in 10.0 mi Calm Calm - N/A   Mostly Cloudy
6:53 PM 60.1 °F 46.9 °F 62% 29.93 in 10.0 mi WNW 4.6 mph - 0.00 in   Overcast
7:53 PM 57.0 °F 48.9 °F 74% 29.93 in 10.0 mi SW 6.9 mph - 0.00 in Rain Light Rain
8:53 PM 57.9 °F 50.0 °F 75% 29.94 in 10.0 mi NW 3.5 mph - 0.01 in Rain Light Rain
9:53 PM 57.0 °F 50.0 °F 77% 29.97 in 10.0 mi Calm Calm - 0.00 in Rain Light Rain
10:53 PM 55.0 °F 48.9 °F 80% 29.96 in 10.0 mi NNW 4.6 mph - 0.02 in   Mostly Cloudy
11:53 PM 55.0 °F 48.9 °F 80% 29.96 in 10.0 mi Calm Calm - N/A   Scattered Clouds